Location: Gälforsberget
(66.6500°N, 22.4167°E)
Time: 09:42:15
(UTC+00:00)

Cosmos 1697 Rocket - Pass Details

Date: 11 April 2026
Orbit: 832 x 842 km, 71.0° (Epoch: 18 May)

Event Time Altitude Azimuth Distance (km) Brightness Sun altitude
Rises 23:11:52 0° 310° (NW) 3,409 6.3 -14.4°
Reaches altitude 10° 23:14:20 10° 307° (NW) 2,471 5.5 -14.3°
Maximum altitude 23:19:54 60° 230° (SW) 965 2.7 -14.2°
Enters shadow 23:25:11 11° 152° (SSE) 2,363 4.6 -14.1°
